Time,TemperatureF,DewpointF,PressureIn,WindDirection,WindDirectionDegrees,WindSpeedMPH,WindSpeedGustMPH,Humidity,HourlyPrecipIn,Conditions,Clouds,dailyrainin,SoftwareType,DateUTC
2013-03-19 00:02:00,32.2,11.6,30.00,ESE,116,4.9,4.9,42,0.00,,,0.04,WeatherDisplay:10.36,2013-03-19 05:02:00,
2013-03-19 00:07:00,32.0,11.5,30.00,ENE,75,9.2,9.2,42,0.00,,,0.04,WeatherDisplay:10.36,2013-03-19 05:07:00,
2013-03-19 00:12:00,32.0,11.5,30.00,ENE,57,7.4,7.4,42,0.00,,,0.04,WeatherDisplay:10.36,2013-03-19 05:12:00,
2013-03-19 00:17:00,31.8,10.8,29.97,ENE,72,4.9,4.9,41,0.00,,,0.04,WeatherDisplay:10.36,2013-03-19 05:17:00,
2013-03-19 00:22:00,31.8,10.8,29.97,ENE,74,4.9,4.9,41,0.00,,,0.04,WeatherDisplay:10.36,2013-03-19 05:22:00,
2013-03-19 00:27:00,31.6,10.6,29.97,SE,146,4.0,4.0,41,0.00,,,0.04,WeatherDisplay:10.36,2013-03-19 05:27:00,
2013-03-19 00:32:00,31.5,11.0,30.00,ENE,67,5.8,5.8,42,0.00,,,0.04,WeatherDisplay:10.36,2013-03-19 05:32:00,
2013-03-19 00:38:00,31.3,10.8,30.00,East,90,5.8,5.8,42,0.00,,,0.04,WeatherDisplay:10.36,2013-03-19 05:38:00,
2013-03-19 00:43:00,31.3,10.8,30.00,ENE,58,9.2,9.2,42,0.00,,,0.04,WeatherDisplay:10.36,2013-03-19 05:43:00,
2013-03-19 00:48:00,31.3,10.8,30.00,East,93,5.8,5.8,42,0.00,,,0.04,WeatherDisplay:10.36,2013-03-19 05:48:00,
2013-03-19 00:53:00,31.1,10.6,30.00,East,92,6.3,6.3,42,0.00,,,0.04,WeatherDisplay:10.36,2013-03-19 05:53:00,
2013-03-19 00:58:00,31.1,10.6,30.00,SE,143,10.4,10.4,42,0.00,,,0.04,WeatherDisplay:10.36,2013-03-19 05:58:00,
2013-03-19 01:03:00,31.1,10.6,30.00,WSW,239,5.8,5.8,42,0.00,,,0.04,WeatherDisplay:10.36,2013-03-19 06:03:00,
2013-03-19 01:08:00,30.9,10.5,30.00,SE,132,6.3,6.3,42,0.00,,,0.00,WeatherDisplay:10.36,2013-03-19 06:08:00,
2013-03-19 01:13:00,30.7,10.3,30.00,East,79,5.8,5.8,42,0.00,,,0.00,WeatherDisplay:10.36,2013-03-19 06:13:00,
2013-03-19 01:18:00,30.7,10.3,30.00,East,89,5.8,5.8,42,0.00,,,0.00,WeatherDisplay:10.36,2013-03-19 06:18:00,
2013-03-19 01:23:00,30.6,10.2,30.00,South,173,6.9,6.9,42,0.00,,,0.00,WeatherDisplay:10.36,2013-03-19 06:23:00,
2013-03-19 01:28:00,30.6,10.2,30.00,South,169,5.8,5.8,42,0.00,,,0.00,WeatherDisplay:10.36,2013-03-19 06:28:00,
2013-03-19 01:33:00,30.4,10.5,30.00,ENE,77,6.9,6.9,43,0.00,,,0.00,WeatherDisplay:10.36,2013-03-19 06:33:00,
2013-03-19 01:38:00,30.4,10.5,30.00,ENE,73,5.8,5.8,43,0.00,,,0.00,WeatherDisplay:10.36,2013-03-19 06:38:00,
2013-03-19 01:43:00,30.4,10.5,30.00,NE,47,6.9,6.9,43,0.00,,,0.00,WeatherDisplay:10.36,2013-03-19 06:43:00,
2013-03-19 01:48:00,30.4,10.5,30.00,East,79,5.8,5.8,43,0.00,,,0.00,WeatherDisplay:10.36,2013-03-19 06:48:00,
2013-03-19 01:53:00,30.2,10.4,30.00,West,259,6.9,6.9,43,0.00,,,0.00,WeatherDisplay:10.36,2013-03-19 06:53:00,
2013-03-19 01:58:00,30.2,10.4,30.00,NE,52,4.9,4.9,43,0.00,,,0.00,WeatherDisplay:10.36,2013-03-19 06:58:00,
2013-03-19 02:03:00,30.0,10.2,30.00,East,93,4.6,4.6,43,0.00,,,0.00,WeatherDisplay:10.36,2013-03-19 07:03:00,
2013-03-19 02:08:00,30.0,10.7,30.00,East,98,6.9,6.9,44,0.00,,,0.00,WeatherDisplay:10.36,2013-03-19 07:08:00,
2013-03-19 02:13:00,30.0,10.7,30.00,ENE,63,5.8,5.8,44,0.00,,,0.00,WeatherDisplay:10.36,2013-03-19 07:13:00,
2013-03-19 02:18:00,29.8,10.5,30.00,ENE,72,5.4,5.4,44,0.00,,,0.00,WeatherDisplay:10.36,2013-03-19 07:18:00,
2013-03-19 02:23:00,29.8,10.5,30.00,NE,47,5.8,5.8,44,0.00,,,0.00,WeatherDisplay:10.36,2013-03-19 07:23:00,
2013-03-19 02:28:00,29.7,10.4,30.00,West,266,6.3,6.3,44,0.00,,,0.00,WeatherDisplay:10.36,2013-03-19 07:28:00,
2013-03-19 02:33:00,29.7,10.4,30.03,NE,50,5.8,5.8,44,0.00,,,0.00,WeatherDisplay:10.36,2013-03-19 07:33:00,
2013-03-19 02:38:00,29.7,10.4,30.03,SE,144,6.9,6.9,44,0.00,,,0.00,WeatherDisplay:10.36,2013-03-19 07:38:00,
2013-03-19 02:43:00,29.7,10.4,30.03,ENE,58,5.8,5.8,44,0.00,,,0.00,WeatherDisplay:10.36,2013-03-19 07:43:00,
2013-03-19 02:48:00,29.5,10.2,30.00,East,82,4.9,4.9,44,0.00,,,0.00,WeatherDisplay:10.36,2013-03-19 07:48:00,
2013-03-19 02:53:00,29.5,10.2,30.00,ESE,110,6.3,6.3,44,0.00,,,0.00,WeatherDisplay:10.36,2013-03-19 07:53:00,
2013-03-19 02:58:00,29.3,10.6,30.00,East,101,5.8,5.8,45,0.00,,,0.00,WeatherDisplay:10.36,2013-03-19 07:58:00,
2013-03-19 03:03:00,29.3,10.6,30.00,ENE,62,5.8,5.8,45,0.00,,,0.00,WeatherDisplay:10.36,2013-03-19 08:03:00,
2013-03-19 03:08:00,29.3,10.6,30.00,East,96,7.4,7.4,45,0.00,,,0.00,WeatherDisplay:10.36,2013-03-19 08:08:00,
2013-03-19 03:13:00,29.3,10.6,30.00,ESE,116,5.8,5.8,45,0.00,,,0.00,WeatherDisplay:10.36,2013-03-19 08:13:00,
2013-03-19 03:19:00,29.5,10.7,30.00,ENE,69,8.3,8.3,45,0.00,,,0.00,WeatherDisplay:10.36,2013-03-19 08:19:00,
2013-03-19 03:24:00,29.5,10.7,30.00,NE,50,3.6,3.6,45,0.00,,,0.00,WeatherDisplay:10.36,2013-03-19 08:24:00,
2013-03-19 03:29:00,29.5,10.7,30.00,East,101,5.8,5.8,45,0.00,,,0.00,WeatherDisplay:10.36,2013-03-19 08:29:00,
2013-03-19 03:34:00,29.3,10.6,30.00,East,99,5.8,5.8,45,0.00,,,0.00,WeatherDisplay:10.36,2013-03-19 08:34:00,
2013-03-19 03:39:00,29.3,10.6,30.00,NE,53,6.7,6.7,45,0.00,,,0.00,WeatherDisplay:10.36,2013-03-19 08:39:00,
2013-03-19 03:44:00,29.3,10.6,30.00,ESE,120,6.9,6.9,45,0.00,,,0.00,WeatherDisplay:10.36,2013-03-19 08:44:00,
2013-03-19 03:49:00,29.1,10.4,30.00,ENE,72,6.9,6.9,45,0.00,,,0.00,WeatherDisplay:10.36,2013-03-19 08:49:00,
2013-03-19 03:55:00,29.1,10.4,30.00,East,89,5.4,5.4,45,0.00,,,0.00,WeatherDisplay:10.36,2013-03-19 08:55:00,
2013-03-19 04:00:00,29.1,10.4,30.00,ENE,75,4.5,4.5,45,0.00,,,0.00,WeatherDisplay:10.36,2013-03-19 09:00:00,
2013-03-19 04:05:00,29.1,10.4,30.03,ESE,103,5.4,5.4,45,0.00,,,0.00,WeatherDisplay:10.36,2013-03-19 09:05:00,
2013-03-19 04:10:00,29.1,10.4,30.03,ENE,61,5.4,5.4,45,0.00,,,0.00,WeatherDisplay:10.36,2013-03-19 09:10:00,
2013-03-19 04:15:00,29.3,10.6,30.03,East,97,5.4,5.4,45,0.00,,,0.00,WeatherDisplay:10.36,2013-03-19 09:15:00,
2013-03-19 04:20:00,29.3,10.6,30.03,ENE,64,8.3,8.3,45,0.00,,,0.00,WeatherDisplay:10.36,2013-03-19 09:20:00,
2013-03-19 04:25:00,29.5,10.7,30.03,ENE,70,5.8,5.8,45,0.00,,,0.00,WeatherDisplay:10.36,2013-03-19 09:25:00,
2013-03-19 04:30:00,29.5,10.2,30.03,ENE,65,6.9,6.9,44,0.00,,,0.00,WeatherDisplay:10.36,2013-03-19 09:30:00,
2013-03-19 04:35:00,29.7,10.4,30.03,NE,56,5.8,5.8,44,0.00,,,0.00,WeatherDisplay:10.36,2013-03-19 09:35:00,
2013-03-19 04:40:00,29.7,10.4,30.03,ESE,119,9.6,9.6,44,0.00,,,0.00,WeatherDisplay:10.36,2013-03-19 09:40:00,
2013-03-19 04:45:00,29.7,10.4,30.03,SE,136,5.8,5.8,44,0.00,,,0.00,WeatherDisplay:10.36,2013-03-19 09:45:00,
2013-03-19 04:50:00,29.7,10.4,30.03,SSE,154,6.7,7.8,44,0.00,,,0.00,WeatherDisplay:10.36,2013-03-19 09:50:00,
2013-03-19 04:55:00,29.7,10.4,30.03,NE,50,4.6,4.6,44,0.00,,,0.00,WeatherDisplay:10.36,2013-03-19 09:55:00,
2013-03-19 05:00:00,29.7,9.9,30.03,NE,52,4.9,4.9,43,0.00,,,0.00,WeatherDisplay:10.36,2013-03-19 10:00:00,
2013-03-19 05:05:00,29.7,9.9,30.03,NE,52,4.9,4.9,43,0.00,,,0.00,WeatherDisplay:10.36,2013-03-19 10:05:00,
2013-03-19 05:11:00,29.7,9.9,30.06,ESE,118,8.1,8.1,43,0.00,,,0.00,WeatherDisplay:10.36,2013-03-19 10:11:00,
2013-03-19 05:16:00,29.7,9.9,30.06,ENE,61,4.6,4.6,43,0.00,,,0.00,WeatherDisplay:10.36,2013-03-19 10:16:00,
2013-03-19 05:21:00,29.7,9.9,30.06,ESE,102,6.9,6.9,43,0.00,,,0.00,WeatherDisplay:10.36,2013-03-19 10:21:00,
2013-03-19 05:26:00,29.7,9.9,30.06,East,86,3.5,0.0,43,0.00,,,0.00,WeatherDisplay:10.36,2013-03-19 10:26:00,
2013-03-19 05:31:00,29.7,9.9,30.06,SSW,199,6.3,6.3,43,0.00,,,0.00,WeatherDisplay:10.36,2013-03-19 10:31:00,
2013-03-19 05:36:00,29.8,10.5,30.03,SE,125,6.9,6.9,44,0.00,,,0.00,WeatherDisplay:10.36,2013-03-19 10:36:00,
2013-03-19 05:41:00,30.0,11.2,30.03,East,93,6.9,6.9,45,0.00,,,0.00,WeatherDisplay:10.36,2013-03-19 10:41:00,
2013-03-19 05:47:00,30.2,12.4,30.06,ENE,58,5.8,5.8,47,0.00,,,0.00,WeatherDisplay:10.36,2013-03-19 10:47:00,
2013-03-19 05:52:00,30.0,12.2,30.06,NE,54,6.9,6.9,47,0.00,,,0.00,WeatherDisplay:10.36,2013-03-19 10:52:00,
2013-03-19 05:57:00,30.0,12.2,30.06,ESE,121,6.3,6.3,47,0.00,,,0.00,WeatherDisplay:10.36,2013-03-19 10:57:00,
2013-03-19 06:02:00,30.0,12.2,30.06,NE,53,4.6,4.6,47,0.00,,,0.00,WeatherDisplay:10.36,2013-03-19 11:02:00,
2013-03-19 06:08:00,30.0,12.2,30.06,NE,47,5.8,5.8,47,0.00,,,0.00,WeatherDisplay:10.36,2013-03-19 11:08:00,
2013-03-19 06:13:00,29.8,11.5,30.06,East,83,8.1,8.1,46,0.00,,,0.00,WeatherDisplay:10.36,2013-03-19 11:13:00,
2013-03-19 06:18:00,29.8,11.1,30.06,ENE,78,6.9,6.9,45,0.00,,,0.00,WeatherDisplay:10.36,2013-03-19 11:18:00,
2013-03-19 06:23:00,29.8,10.5,30.06,ESE,111,6.3,6.3,44,0.00,,,0.00,WeatherDisplay:10.36,2013-03-19 11:23:00,
2013-03-19 06:28:00,29.7,10.4,30.06,East,86,4.0,4.0,44,0.00,,,0.00,WeatherDisplay:10.36,2013-03-19 11:28:00,
2013-03-19 06:33:00,29.5,9.7,30.08,ENE,57,5.8,5.8,43,0.00,,,0.00,WeatherDisplay:10.36,2013-03-19 11:33:00,
2013-03-19 06:38:00,29.1,9.4,30.08,SW,236,4.9,4.9,43,0.00,,,0.00,WeatherDisplay:10.36,2013-03-19 11:38:00,
2013-03-19 06:43:00,28.9,9.2,30.08,East,85,5.8,5.8,43,0.00,,,0.00,WeatherDisplay:10.36,2013-03-19 11:43:00,
2013-03-19 06:48:00,28.8,9.0,30.08,East,94,6.9,6.9,43,0.00,,,0.00,WeatherDisplay:10.36,2013-03-19 11:48:00,
2013-03-19 06:53:00,28.8,9.0,30.08,ESE,121,7.4,7.4,43,0.00,,,0.00,WeatherDisplay:10.36,2013-03-19 11:53:00,
2013-03-19 06:58:00,28.6,8.9,30.08,ENE,72,4.5,0.0,43,0.00,,,0.00,WeatherDisplay:10.36,2013-03-19 11:58:00,
2013-03-19 07:03:00,28.6,8.9,30.08,East,83,8.3,8.3,43,0.00,,,0.00,WeatherDisplay:10.36,2013-03-19 12:03:00,
2013-03-19 07:08:00,28.4,8.7,30.08,ENE,61,6.9,6.9,43,0.00,,,0.00,WeatherDisplay:10.36,2013-03-19 12:08:00,
2013-03-19 07:13:00,28.4,8.7,30.08,ENE,58,4.0,4.0,43,0.00,,,0.00,WeatherDisplay:10.36,2013-03-19 12:13:00,
2013-03-19 07:18:00,28.4,8.7,30.08,NE,52,5.8,5.8,43,0.00,,,0.00,WeatherDisplay:10.36,2013-03-19 12:18:00,
2013-03-19 07:23:00,28.4,8.7,30.08,ESE,116,7.4,7.4,43,0.00,,,0.00,WeatherDisplay:10.36,2013-03-19 12:23:00,
2013-03-19 07:28:00,28.2,8.6,30.08,SSE,156,5.8,5.8,43,0.00,,,0.00,WeatherDisplay:10.36,2013-03-19 12:28:00,
2013-03-19 07:33:00,28.2,8.6,30.08,East,79,6.9,6.9,43,0.00,,,0.00,WeatherDisplay:10.36,2013-03-19 12:33:00,
2013-03-19 07:38:00,28.0,7.9,30.08,SE,129,5.8,5.8,42,0.00,,,0.00,WeatherDisplay:10.36,2013-03-19 12:38:00,
2013-03-19 07:43:00,28.0,7.9,30.08,ENE,63,5.8,5.8,42,0.00,,,0.00,WeatherDisplay:10.36,2013-03-19 12:43:00,
2013-03-19 07:48:00,28.4,8.2,30.08,ESE,116,4.9,4.9,42,0.00,,,0.00,WeatherDisplay:10.36,2013-03-19 12:48:00,
2013-03-19 07:53:00,28.8,8.5,30.08,East,93,4.6,4.6,42,0.00,,,0.00,WeatherDisplay:10.36,2013-03-19 12:53:00,
2013-03-19 07:58:00,29.3,9.0,30.08,East,92,4.0,4.0,42,0.00,,,0.00,WeatherDisplay:10.36,2013-03-19 12:58:00,
2013-03-19 08:03:00,29.8,9.5,30.11,ENE,66,5.8,5.8,42,0.00,,,0.00,WeatherDisplay:10.36,2013-03-19 13:03:00,
2013-03-19 08:08:00,30.0,9.1,30.11,NE,55,9.2,9.2,41,0.00,,,0.00,WeatherDisplay:10.36,2013-03-19 13:08:00,
2013-03-19 08:13:00,30.6,9.6,30.11,East,83,8.1,8.1,41,0.00,,,0.00,WeatherDisplay:10.36,2013-03-19 13:13:00,
2013-03-19 08:18:00,31.1,9.6,30.11,NE,52,6.9,6.9,40,0.00,,,0.00,WeatherDisplay:10.36,2013-03-19 13:18:00,
2013-03-19 08:23:00,31.6,10.0,30.11,NE,54,5.8,5.8,40,0.00,,,0.00,WeatherDisplay:10.36,2013-03-19 13:23:00,
2013-03-19 08:28:00,32.2,10.0,30.11,ENE,77,10.4,10.4,39,0.00,,,0.00,WeatherDisplay:10.36,2013-03-19 13:28:00,
2013-03-19 08:33:00,32.5,8.5,30.11,ESE,103,9.6,9.6,36,0.00,,,0.00,WeatherDisplay:10.36,2013-03-19 13:33:00,
2013-03-19 08:38:00,32.7,8.0,30.11,SE,129,5.8,5.8,35,0.00,,,0.00,WeatherDisplay:10.36,2013-03-19 13:38:00,
2013-03-19 08:43:00,33.1,7.7,30.11,East,94,8.1,8.1,34,0.00,,,0.00,WeatherDisplay:10.36,2013-03-19 13:43:00,
2013-03-19 08:48:00,33.1,7.1,30.11,ENE,70,4.6,4.6,33,0.00,,,0.00,WeatherDisplay:10.36,2013-03-19 13:48:00,
2013-03-19 08:53:00,33.3,7.2,30.11,SW,220,4.5,4.5,33,0.00,,,0.00,WeatherDisplay:10.36,2013-03-19 13:53:00,
2013-03-19 08:58:00,33.3,7.2,30.11,East,80,6.9,6.9,33,0.00,,,0.00,WeatherDisplay:10.36,2013-03-19 13:58:00,
2013-03-19 09:03:00,33.4,7.4,30.11,ENE,62,8.1,8.1,33,0.00,,,0.00,WeatherDisplay:10.36,2013-03-19 14:03:00,
2013-03-19 09:08:00,33.3,7.2,30.11,WSW,252,5.8,5.8,33,0.00,,,0.00,WeatherDisplay:10.36,2013-03-19 14:08:00,
2013-03-19 09:13:00,33.4,7.4,30.11,West,263,10.5,10.5,33,0.00,,,0.00,WeatherDisplay:10.36,2013-03-19 14:13:00,
2013-03-19 09:18:00,33.6,7.5,30.11,SE,138,7.4,7.4,33,0.00,,,0.00,WeatherDisplay:10.36,2013-03-19 14:18:00,
2013-03-19 09:23:00,34.0,7.2,30.11,SE,144,8.3,8.3,32,0.00,,,0.00,WeatherDisplay:10.36,2013-03-19 14:23:00,
2013-03-19 09:28:00,34.5,7.6,30.11,SE,132,6.9,6.9,32,0.00,,,0.00,WeatherDisplay:10.36,2013-03-19 14:28:00,
2013-03-19 09:33:00,35.1,7.4,30.14,SE,134,9.2,9.2,31,0.00,,,0.00,WeatherDisplay:10.36,2013-03-19 14:33:00,
2013-03-19 09:38:00,35.4,7.7,30.14,ENE,57,5.8,5.8,31,0.00,,,0.00,WeatherDisplay:10.36,2013-03-19 14:38:00,
2013-03-19 09:43:00,35.6,7.2,30.14,East,93,8.1,8.1,30,0.00,,,0.00,WeatherDisplay:10.36,2013-03-19 14:43:00,
2013-03-19 09:48:00,36.0,7.5,30.14,SSE,147,5.8,5.8,30,0.00,,,0.00,WeatherDisplay:10.36,2013-03-19 14:48:00,
2013-03-19 09:53:00,36.1,7.6,30.14,SE,133,6.3,6.3,30,0.00,,,0.00,WeatherDisplay:10.36,2013-03-19 14:53:00,
2013-03-19 09:58:00,36.3,7.8,30.14,ENE,67,6.3,6.3,30,0.00,,,0.00,WeatherDisplay:10.36,2013-03-19 14:58:00,
2013-03-19 10:03:00,36.7,7.4,30.14,SSE,149,5.8,5.8,29,0.00,,,0.00,WeatherDisplay:10.36,2013-03-19 15:03:00,
2013-03-19 10:08:00,36.9,7.5,30.14,West,264,8.1,8.1,29,0.00,,,0.00,WeatherDisplay:10.36,2013-03-19 15:08:00,
2013-03-19 10:13:00,36.9,7.5,30.14,West,266,6.3,6.3,29,0.00,,,0.00,WeatherDisplay:10.36,2013-03-19 15:13:00,
2013-03-19 10:18:00,37.2,7.8,30.17,SSW,210,6.9,6.9,29,0.00,,,0.00,WeatherDisplay:10.36,2013-03-19 15:18:00,
2013-03-19 10:23:00,37.4,8.0,30.17,NE,45,6.3,6.3,29,0.00,,,0.00,WeatherDisplay:10.36,2013-03-19 15:23:00,
2013-03-19 10:28:00,37.6,8.1,30.17,East,94,8.7,8.7,29,0.00,,,0.00,WeatherDisplay:10.36,2013-03-19 15:28:00,
2013-03-19 10:33:00,37.9,8.5,30.17,ESE,106,5.8,5.8,29,0.00,,,0.00,WeatherDisplay:10.36,2013-03-19 15:33:00,
2013-03-19 10:38:00,38.1,9.4,30.17,South,190,5.8,5.8,30,0.00,,,0.00,WeatherDisplay:10.36,2013-03-19 15:38:00,
2013-03-19 10:43:00,38.3,8.8,30.17,East,89,9.2,9.2,29,0.00,,,0.00,WeatherDisplay:10.36,2013-03-19 15:43:00,
2013-03-19 10:48:00,38.7,9.1,30.17,NE,51,8.1,8.1,29,0.00,,,0.00,WeatherDisplay:10.36,2013-03-19 15:48:00,
2013-03-19 10:53:00,39.0,9.4,30.17,NE,49,5.8,5.8,29,0.00,,,0.00,WeatherDisplay:10.36,2013-03-19 15:53:00,
2013-03-19 10:58:00,39.4,9.7,30.17,ENE,73,8.3,8.3,29,0.00,,,0.00,WeatherDisplay:10.36,2013-03-19 15:58:00,
2013-03-19 11:03:00,39.7,9.2,30.17,SE,127,6.3,6.3,28,0.00,,,0.00,WeatherDisplay:10.36,2013-03-19 16:03:00,
2013-03-19 11:08:00,40.1,9.6,30.17,East,82,9.2,9.2,28,0.00,,,0.00,WeatherDisplay:10.36,2013-03-19 16:08:00,
2013-03-19 11:13:00,40.6,10.0,30.17,ENE,76,8.1,8.1,28,0.00,,,0.00,WeatherDisplay:10.36,2013-03-19 16:13:00,
2013-03-19 11:18:00,41.0,8.7,30.17,West,265,9.2,9.2,26,0.00,,,0.00,WeatherDisplay:10.36,2013-03-19 16:18:00,
2013-03-19 11:24:00,41.5,9.1,30.17,ESE,114,7.8,7.8,26,0.00,,,0.00,WeatherDisplay:10.36,2013-03-19 16:24:00,
2013-03-19 11:29:00,41.9,8.6,30.17,SSE,162,6.9,6.9,25,0.00,,,0.00,WeatherDisplay:10.36,2013-03-19 16:29:00,
2013-03-19 11:34:00,42.3,8.9,30.17,WSW,255,6.3,6.3,25,0.00,,,0.00,WeatherDisplay:10.36,2013-03-19 16:34:00,
2013-03-19 11:39:00,42.4,9.0,30.17,West,266,5.8,5.8,25,0.00,,,0.00,WeatherDisplay:10.36,2013-03-19 16:39:00,
2013-03-19 11:44:00,42.4,9.0,30.17,East,80,0.0,4.9,25,0.00,,,0.00,WeatherDisplay:10.36,2013-03-19 16:44:00,
2013-03-19 11:49:00,42.4,9.0,30.17,ENE,78,7.4,7.4,25,0.00,,,0.00,WeatherDisplay:10.36,2013-03-19 16:49:00,
2013-03-19 11:54:00,42.8,9.3,30.17,ENE,70,7.4,7.4,25,0.00,,,0.00,WeatherDisplay:10.36,2013-03-19 16:54:00,
2013-03-19 11:59:00,43.2,9.7,30.17,ENE,70,8.3,8.3,25,0.00,,,0.00,WeatherDisplay:10.36,2013-03-19 16:59:00,
2013-03-19 12:04:00,43.3,8.0,30.17,East,89,5.4,5.4,23,0.00,,,0.00,WeatherDisplay:10.36,2013-03-19 17:04:00,
2013-03-19 12:09:00,43.5,8.1,30.17,ESE,108,4.0,4.0,23,0.00,,,0.00,WeatherDisplay:10.36,2013-03-19 17:09:00,
2013-03-19 12:14:00,43.9,7.4,30.17,East,95,4.5,4.5,22,0.00,,,0.00,WeatherDisplay:10.36,2013-03-19 17:14:00,
2013-03-19 12:19:00,44.2,7.7,30.17,East,100,5.4,6.3,22,0.00,,,0.00,WeatherDisplay:10.36,2013-03-19 17:19:00,
2013-03-19 12:24:00,44.2,7.7,30.17,NE,54,3.6,3.6,22,0.00,,,0.00,WeatherDisplay:10.36,2013-03-19 17:24:00,
2013-03-19 12:29:00,44.1,5.5,30.17,West,266,5.8,5.8,20,0.00,,,0.00,WeatherDisplay:10.36,2013-03-19 17:29:00,
2013-03-19 12:34:00,44.1,5.5,30.17,ESE,113,4.9,4.9,20,0.00,,,0.00,WeatherDisplay:10.36,2013-03-19 17:34:00,
2013-03-19 12:39:00,44.2,5.6,30.17,ESE,111,7.4,7.4,20,0.00,,,0.00,WeatherDisplay:10.36,2013-03-19 17:39:00,
2013-03-19 12:44:00,44.2,5.6,30.17,NE,53,4.0,4.0,20,0.00,,,0.00,WeatherDisplay:10.36,2013-03-19 17:44:00,
2013-03-19 12:49:00,44.4,5.8,30.17,WSW,251,4.9,4.9,20,0.00,,,0.00,WeatherDisplay:10.36,2013-03-19 17:49:00,
2013-03-19 12:54:00,44.6,8.0,30.17,SW,230,6.9,6.9,22,0.00,,,0.00,WeatherDisplay:10.36,2013-03-19 17:54:00,
2013-03-19 12:59:00,44.8,8.2,30.17,SE,142,5.8,5.8,22,0.00,,,0.00,WeatherDisplay:10.36,2013-03-19 17:59:00,
2013-03-19 13:04:00,45.0,6.2,30.17,West,266,7.4,7.4,20,0.00,,,0.00,WeatherDisplay:10.36,2013-03-19 18:04:00,
2013-03-19 13:09:00,45.0,6.2,30.17,ENE,67,6.7,6.7,20,0.00,,,0.00,WeatherDisplay:10.36,2013-03-19 18:09:00,
2013-03-19 13:14:00,45.5,6.7,30.17,SW,235,6.7,6.7,20,0.00,,,0.00,WeatherDisplay:10.36,2013-03-19 18:14:00,
2013-03-19 13:19:00,45.9,5.9,30.17,ESE,120,2.7,4.0,19,0.00,,,0.00,WeatherDisplay:10.36,2013-03-19 18:19:00,
2013-03-19 13:24:00,45.9,5.9,30.17,SE,140,6.3,6.3,19,0.00,,,0.00,WeatherDisplay:10.36,2013-03-19 18:24:00,
2013-03-19 13:29:00,46.2,6.1,30.17,SW,234,7.4,7.4,19,0.00,,,0.00,WeatherDisplay:10.36,2013-03-19 18:29:00,
2013-03-19 13:34:00,46.4,6.3,30.17,SW,222,5.8,5.8,19,0.00,,,0.00,WeatherDisplay:10.36,2013-03-19 18:34:00,
2013-03-19 13:39:00,46.4,6.3,30.17,NE,48,5.8,5.8,19,0.00,,,0.00,WeatherDisplay:10.36,2013-03-19 18:39:00,
2013-03-19 13:44:00,46.8,9.9,30.17,NE,44,6.3,6.7,22,0.00,,,0.00,WeatherDisplay:10.36,2013-03-19 18:44:00,
2013-03-19 13:49:00,46.9,6.7,30.17,ENE,74,5.8,5.8,19,0.00,,,0.00,WeatherDisplay:10.36,2013-03-19 18:49:00,
2013-03-19 13:54:00,46.9,6.7,30.17,ENE,65,6.9,6.9,19,0.00,,,0.00,WeatherDisplay:10.36,2013-03-19 18:54:00,
2013-03-19 14:00:00,47.1,6.9,30.17,NE,50,6.3,6.3,19,0.00,,,0.00,WeatherDisplay:10.36,2013-03-19 19:00:00,
2013-03-19 14:05:00,47.7,9.6,30.17,West,264,6.3,6.3,21,0.00,,,0.00,WeatherDisplay:10.36,2013-03-19 19:05:00,
2013-03-19 14:10:00,48.0,7.6,30.17,East,92,5.4,5.4,19,0.00,,,0.00,WeatherDisplay:10.36,2013-03-19 19:10:00,
2013-03-19 14:15:00,48.4,7.9,30.17,ESE,108,6.9,6.9,19,0.00,,,0.00,WeatherDisplay:10.36,2013-03-19 19:15:00,
2013-03-19 14:20:00,48.7,8.2,30.14,ENE,63,6.9,6.9,19,0.00,,,0.00,WeatherDisplay:10.36,2013-03-19 19:20:00,
2013-03-19 14:25:00,48.9,8.4,30.14,East,89,6.3,6.3,19,0.00,,,0.00,WeatherDisplay:10.36,2013-03-19 19:25:00,
2013-03-19 14:30:00,49.1,8.5,30.14,West,261,5.8,5.8,19,0.00,,,0.00,WeatherDisplay:10.36,2013-03-19 19:30:00,
2013-03-19 14:35:00,48.7,8.2,30.14,NE,44,4.9,4.9,19,0.00,,,0.00,WeatherDisplay:10.36,2013-03-19 19:35:00,
2013-03-19 14:40:00,48.7,8.2,30.14,NE,52,4.0,4.9,19,0.00,,,0.00,WeatherDisplay:10.36,2013-03-19 19:40:00,
2013-03-19 14:45:00,48.7,8.2,30.14,ENE,64,5.8,5.8,19,0.00,,,0.00,WeatherDisplay:10.36,2013-03-19 19:45:00,
2013-03-19 14:50:00,48.7,8.2,30.14,East,93,0.0,0.0,19,0.00,,,0.00,WeatherDisplay:10.36,2013-03-19 19:50:00,
2013-03-19 14:55:00,48.7,8.2,30.14,East,85,4.9,4.9,19,0.00,,,0.00,WeatherDisplay:10.36,2013-03-19 19:55:00,
2013-03-19 15:00:00,49.1,8.5,30.14,ESE,103,6.9,6.9,19,0.00,,,0.00,WeatherDisplay:10.36,2013-03-19 20:00:00,
2013-03-19 15:05:00,49.1,8.5,30.14,West,266,5.8,6.3,19,0.00,,,0.00,WeatherDisplay:10.36,2013-03-19 20:05:00,
2013-03-19 15:10:00,49.3,8.7,30.14,NE,47,4.5,4.5,19,0.00,,,0.00,WeatherDisplay:10.36,2013-03-19 20:10:00,
2013-03-19 15:15:00,49.3,8.7,30.14,West,266,6.7,6.7,19,0.00,,,0.00,WeatherDisplay:10.36,2013-03-19 20:15:00,
2013-03-19 15:20:00,49.1,8.5,30.14,ENE,69,4.0,4.0,19,0.00,,,0.00,WeatherDisplay:10.36,2013-03-19 20:20:00,
2013-03-19 15:25:00,48.9,8.4,30.14,East,98,6.3,6.3,19,0.00,,,0.00,WeatherDisplay:10.36,2013-03-19 20:25:00,
2013-03-19 15:30:00,48.7,8.2,30.14,East,85,4.9,5.4,19,0.00,,,0.00,WeatherDisplay:10.36,2013-03-19 20:30:00,
2013-03-19 15:35:00,48.4,7.9,30.14,ESE,109,6.9,6.9,19,0.00,,,0.00,WeatherDisplay:10.36,2013-03-19 20:35:00,
2013-03-19 15:40:00,48.2,7.8,30.14,East,97,5.4,5.4,19,0.00,,,0.00,WeatherDisplay:10.36,2013-03-19 20:40:00,
2013-03-19 15:45:00,48.4,7.9,30.14,SSE,157,4.5,4.5,19,0.00,,,0.00,WeatherDisplay:10.36,2013-03-19 20:45:00,
2013-03-19 15:50:00,48.6,8.1,30.14,ENE,70,6.3,6.3,19,0.00,,,0.00,WeatherDisplay:10.36,2013-03-19 20:50:00,
2013-03-19 15:55:00,48.6,8.1,30.14,East,82,6.9,6.9,19,0.00,,,0.00,WeatherDisplay:10.36,2013-03-19 20:55:00,
2013-03-19 16:00:00,48.6,8.1,30.14,ESE,102,6.3,6.3,19,0.00,,,0.00,WeatherDisplay:10.36,2013-03-19 21:00:00,
2013-03-19 16:05:00,48.6,4.3,30.14,NE,45,9.2,9.2,16,0.00,,,0.00,WeatherDisplay:10.36,2013-03-19 21:05:00,
2013-03-19 16:10:00,48.4,7.9,30.14,WSW,254,6.9,6.9,19,0.00,,,0.00,WeatherDisplay:10.36,2013-03-19 21:10:00,
2013-03-19 16:15:00,48.2,7.8,30.14,NE,48,4.9,4.9,19,0.00,,,0.00,WeatherDisplay:10.36,2013-03-19 21:15:00,
2013-03-19 16:20:00,48.0,7.6,30.14,NE,49,6.9,6.9,19,0.00,,,0.00,WeatherDisplay:10.36,2013-03-19 21:20:00,
2013-03-19 16:25:00,48.0,7.6,30.14,WSW,248,6.9,6.9,19,0.00,,,0.00,WeatherDisplay:10.36,2013-03-19 21:25:00,
2013-03-19 16:30:00,48.0,7.6,30.14,NE,55,10.1,10.1,19,0.00,,,0.00,WeatherDisplay:10.36,2013-03-19 21:30:00,
2013-03-19 16:35:00,48.0,7.6,30.14,West,266,7.4,7.4,19,0.00,,,0.00,WeatherDisplay:10.36,2013-03-19 21:35:00,
2013-03-19 16:40:00,47.7,7.3,30.14,NE,48,7.8,7.8,19,0.00,,,0.00,WeatherDisplay:10.36,2013-03-19 21:40:00,
2013-03-19 16:45:00,47.5,7.2,30.14,NE,46,9.2,9.2,19,0.00,,,0.00,WeatherDisplay:10.36,2013-03-19 21:45:00,
2013-03-19 16:50:00,47.3,7.0,30.14,SSW,202,5.8,5.8,19,0.00,,,0.00,WeatherDisplay:10.36,2013-03-19 21:50:00,
2013-03-19 16:55:00,47.3,7.0,30.14,SSE,165,6.3,6.3,19,0.00,,,0.00,WeatherDisplay:10.36,2013-03-19 21:55:00,
2013-03-19 17:00:00,47.3,7.0,30.14,WSW,256,5.8,5.8,19,0.00,,,0.00,WeatherDisplay:10.36,2013-03-19 22:00:00,
2013-03-19 17:05:00,47.1,6.9,30.14,ENE,78,7.4,7.4,19,0.00,,,0.00,WeatherDisplay:10.36,2013-03-19 22:05:00,
2013-03-19 17:10:00,46.9,6.7,30.14,NE,50,6.3,6.3,19,0.00,,,0.00,WeatherDisplay:10.36,2013-03-19 22:10:00,
2013-03-19 17:15:00,46.6,6.4,30.14,ESE,103,6.9,6.9,19,0.00,,,0.00,WeatherDisplay:10.36,2013-03-19 22:15:00,
2013-03-19 17:20:00,46.4,6.3,30.14,NE,48,6.7,6.7,19,0.00,,,0.00,WeatherDisplay:10.36,2013-03-19 22:20:00,
2013-03-19 17:25:00,46.2,6.1,30.14,SE,129,6.3,6.3,19,0.00,,,0.00,WeatherDisplay:10.36,2013-03-19 22:25:00,
2013-03-19 17:30:00,46.0,6.0,30.14,NE,50,6.3,6.3,19,0.00,,,0.00,WeatherDisplay:10.36,2013-03-19 22:30:00,
2013-03-19 17:35:00,46.0,6.0,30.14,ENE,67,6.9,6.9,19,0.00,,,0.00,WeatherDisplay:10.36,2013-03-19 22:35:00,
2013-03-19 17:40:00,45.9,5.9,30.14,West,266,5.8,5.8,19,0.00,,,0.00,WeatherDisplay:10.36,2013-03-19 22:40:00,
2013-03-19 17:45:00,45.9,5.9,30.14,West,266,4.9,4.9,19,0.00,,,0.00,WeatherDisplay:10.36,2013-03-19 22:45:00,
2013-03-19 17:50:00,45.5,5.6,30.14,ENE,67,6.3,6.3,19,0.00,,,0.00,WeatherDisplay:10.36,2013-03-19 22:50:00,
2013-03-19 17:55:00,45.3,6.5,30.14,West,266,7.8,7.8,20,0.00,,,0.00,WeatherDisplay:10.36,2013-03-19 22:55:00,
2013-03-19 18:00:00,45.0,6.2,30.14,West,266,4.9,4.9,20,0.00,,,0.00,WeatherDisplay:10.36,2013-03-19 23:00:00,
2013-03-19 18:05:00,44.8,6.1,30.14,NE,50,4.0,4.0,20,0.00,,,0.00,WeatherDisplay:10.36,2013-03-19 23:05:00,
2013-03-19 18:10:00,44.6,5.9,30.14,ESE,114,5.8,5.8,20,0.00,,,0.00,WeatherDisplay:10.36,2013-03-19 23:10:00,
2013-03-19 18:15:00,44.2,5.6,30.14,NE,49,7.4,7.4,20,0.00,,,0.00,WeatherDisplay:10.36,2013-03-19 23:15:00,
2013-03-19 18:20:00,44.1,5.5,30.14,NE,46,5.8,6.3,20,0.00,,,0.00,WeatherDisplay:10.36,2013-03-19 23:20:00,
2013-03-19 18:25:00,43.9,5.3,30.14,East,98,7.4,7.4,20,0.00,,,0.00,WeatherDisplay:10.36,2013-03-19 23:25:00,
2013-03-19 18:30:00,43.7,5.2,30.14,ENE,60,6.7,6.7,20,0.00,,,0.00,WeatherDisplay:10.36,2013-03-19 23:30:00,
2013-03-19 18:35:00,43.5,5.0,30.14,East,80,4.9,4.9,20,0.00,,,0.00,WeatherDisplay:10.36,2013-03-19 23:35:00,
2013-03-19 18:40:00,43.3,4.9,30.14,NE,51,5.8,5.8,20,0.00,,,0.00,WeatherDisplay:10.36,2013-03-19 23:40:00,
2013-03-19 18:45:00,43.2,4.7,30.14,ENE,67,4.9,4.9,20,0.00,,,0.00,WeatherDisplay:10.36,2013-03-19 23:45:00,
2013-03-19 18:50:00,43.0,7.6,30.14,SE,146,4.9,4.9,23,0.00,,,0.00,WeatherDisplay:10.36,2013-03-19 23:50:00,
2013-03-19 18:55:00,43.2,12.2,30.14,SW,222,4.5,4.5,28,0.00,,,0.00,WeatherDisplay:10.36,2013-03-19 23:55:00,
2013-03-19 19:00:00,43.2,13.8,30.14,NE,49,4.0,4.0,30,0.00,,,0.00,WeatherDisplay:10.36,2013-03-20 00:00:00,
2013-03-19 19:05:00,43.0,14.4,30.14,West,266,4.9,4.9,31,0.00,,,0.00,WeatherDisplay:10.36,2013-03-20 00:05:00,
2013-03-19 19:10:00,43.0,15.8,30.14,SSE,153,3.6,3.6,33,0.00,,,0.00,WeatherDisplay:10.36,2013-03-20 00:10:00,
2013-03-19 19:15:00,42.8,17.0,30.14,SSE,159,4.0,4.0,35,0.00,,,0.00,WeatherDisplay:10.36,2013-03-20 00:15:00,
2013-03-19 19:20:00,42.4,15.3,30.14,NE,49,4.6,4.6,33,0.00,,,0.00,WeatherDisplay:10.36,2013-03-20 00:20:00,
2013-03-19 19:25:00,42.3,15.9,30.14,WSW,254,5.4,5.4,34,0.00,,,0.00,WeatherDisplay:10.36,2013-03-20 00:25:00,
2013-03-19 19:30:00,42.3,15.9,30.14,SSW,201,3.6,3.6,34,0.00,,,0.00,WeatherDisplay:10.36,2013-03-20 00:30:00,
2013-03-19 19:35:00,42.1,15.0,30.14,East,80,3.6,4.0,33,0.00,,,0.00,WeatherDisplay:10.36,2013-03-20 00:35:00,
2013-03-19 19:40:00,41.9,14.8,30.14,SE,137,4.0,4.0,33,0.00,,,0.00,WeatherDisplay:10.36,2013-03-20 00:40:00,
2013-03-19 19:45:00,41.5,13.8,30.14,NE,48,3.6,3.6,32,0.00,,,0.00,WeatherDisplay:10.36,2013-03-20 00:45:00,
2013-03-19 19:50:00,41.2,12.8,30.14,East,98,3.1,3.1,31,0.00,,,0.00,WeatherDisplay:10.36,2013-03-20 00:50:00,
2013-03-19 19:55:00,40.6,12.3,30.14,ENE,65,3.5,3.5,31,0.00,,,0.00,WeatherDisplay:10.36,2013-03-20 00:55:00,
2013-03-19 20:00:00,40.3,11.3,30.14,ENE,67,3.1,3.1,30,0.00,,,0.00,WeatherDisplay:10.36,2013-03-20 01:00:00,
2013-03-19 20:05:00,39.9,11.7,30.14,ENE,74,3.6,3.6,31,0.00,,,0.00,WeatherDisplay:10.36,2013-03-20 01:05:00,
2013-03-19 20:10:00,39.6,11.4,30.14,SSW,205,3.1,3.1,31,0.00,,,0.00,WeatherDisplay:10.36,2013-03-20 01:10:00,
2013-03-19 20:15:00,39.2,11.0,30.14,SE,134,3.6,3.6,31,0.00,,,0.00,WeatherDisplay:10.36,2013-03-20 01:15:00,
2013-03-19 20:20:00,39.0,10.9,30.14,SSE,155,3.1,3.1,31,0.00,,,0.00,WeatherDisplay:10.36,2013-03-20 01:20:00,
2013-03-19 20:25:00,38.8,10.7,30.14,SSE,166,3.6,0.0,31,0.00,,,0.00,WeatherDisplay:10.36,2013-03-20 01:25:00,
2013-03-19 20:30:00,38.7,10.6,30.14,NE,46,4.0,4.0,31,0.00,,,0.00,WeatherDisplay:10.36,2013-03-20 01:30:00,
2013-03-19 20:35:00,38.5,10.4,30.14,NE,47,3.1,3.1,31,0.00,,,0.00,WeatherDisplay:10.36,2013-03-20 01:35:00,
2013-03-19 20:40:00,38.1,10.8,30.14,NE,47,0.0,0.0,32,0.00,,,0.00,WeatherDisplay:10.36,2013-03-20 01:40:00,
2013-03-19 20:45:00,38.1,10.8,30.14,NE,45,0.0,0.0,32,0.00,,,0.00,WeatherDisplay:10.36,2013-03-20 01:45:00,
2013-03-19 20:50:00,37.9,11.3,30.14,NE,47,0.0,0.0,33,0.00,,,0.00,WeatherDisplay:10.36,2013-03-20 01:50:00,
2013-03-19 20:55:00,37.6,11.0,30.14,SSW,198,3.6,3.6,33,0.00,,,0.00,WeatherDisplay:10.36,2013-03-20 01:55:00,
2013-03-19 21:00:00,37.4,10.9,30.14,SSW,198,4.0,4.0,33,0.00,,,0.00,WeatherDisplay:10.36,2013-03-20 02:00:00,
2013-03-19 21:05:00,37.2,10.7,30.14,East,82,3.1,3.1,33,0.00,,,0.00,WeatherDisplay:10.36,2013-03-20 02:05:00,
2013-03-19 21:10:00,37.0,10.6,30.14,East,101,4.0,4.0,33,0.00,,,0.00,WeatherDisplay:10.36,2013-03-20 02:10:00,
2013-03-19 21:15:00,36.9,11.1,30.14,ESE,104,4.0,4.0,34,0.00,,,0.00,WeatherDisplay:10.36,2013-03-20 02:15:00,
2013-03-19 21:20:00,36.9,11.1,30.14,East,85,3.1,3.6,34,0.00,,,0.00,WeatherDisplay:10.36,2013-03-20 02:20:00,
2013-03-19 21:25:00,36.7,10.9,30.14,ESE,103,4.9,4.9,34,0.00,,,0.00,WeatherDisplay:10.36,2013-03-20 02:25:00,
2013-03-19 21:30:00,36.7,10.9,30.14,West,266,4.6,4.6,34,0.00,,,0.00,WeatherDisplay:10.36,2013-03-20 02:30:00,
2013-03-19 21:35:00,36.7,10.9,30.14,West,262,4.9,4.9,34,0.00,,,0.00,WeatherDisplay:10.36,2013-03-20 02:35:00,
2013-03-19 21:40:00,36.5,10.7,30.14,ENE,60,4.0,4.0,34,0.00,,,0.00,WeatherDisplay:10.36,2013-03-20 02:40:00,
2013-03-19 21:45:00,36.5,11.4,30.14,NE,46,4.5,4.5,35,0.00,,,0.00,WeatherDisplay:10.36,2013-03-20 02:45:00,
2013-03-19 21:50:00,36.3,11.2,30.14,SSE,149,5.8,5.8,35,0.00,,,0.00,WeatherDisplay:10.36,2013-03-20 02:50:00,
2013-03-19 21:55:00,36.3,11.2,30.14,East,91,4.0,4.0,35,0.00,,,0.00,WeatherDisplay:10.36,2013-03-20 02:55:00,
2013-03-19 22:00:00,36.1,11.7,30.14,NE,53,4.5,4.5,36,0.00,,,0.00,WeatherDisplay:10.36,2013-03-20 03:00:00,
2013-03-19 22:05:00,36.1,11.7,30.14,West,265,4.5,4.5,36,0.00,,,0.00,WeatherDisplay:10.36,2013-03-20 03:05:00,
2013-03-19 22:10:00,36.1,11.7,30.14,West,266,4.5,4.5,36,0.00,,,0.00,WeatherDisplay:10.36,2013-03-20 03:10:00,
2013-03-19 22:15:00,36.1,11.7,30.14,ENE,70,4.5,4.5,36,0.00,,,0.00,WeatherDisplay:10.36,2013-03-20 03:15:00,
2013-03-19 22:20:00,36.0,11.6,30.14,NE,48,3.6,3.6,36,0.00,,,0.00,WeatherDisplay:10.36,2013-03-20 03:20:00,
2013-03-19 22:25:00,35.8,12.0,30.14,NE,43,4.9,0.0,37,0.00,,,0.00,WeatherDisplay:10.36,2013-03-20 03:25:00,
2013-03-19 22:30:00,35.6,11.9,30.14,NE,46,2.7,3.1,37,0.00,,,0.00,WeatherDisplay:10.36,2013-03-20 03:30:00,
2013-03-19 22:35:00,35.4,11.7,30.14,NE,44,0.0,0.0,37,0.00,,,0.00,WeatherDisplay:10.36,2013-03-20 03:35:00,
2013-03-19 22:40:00,35.4,12.3,30.14,NE,44,0.0,0.0,38,0.00,,,0.00,WeatherDisplay:10.36,2013-03-20 03:40:00,
2013-03-19 22:45:00,35.1,12.6,30.14,NE,44,0.0,0.0,39,0.00,,,0.00,WeatherDisplay:10.36,2013-03-20 03:45:00,
2013-03-19 22:50:00,34.9,12.4,30.14,NE,47,3.5,3.5,39,0.00,,,0.00,WeatherDisplay:10.36,2013-03-20 03:50:00,
2013-03-19 22:55:00,34.7,12.2,30.14,NE,45,0.0,0.0,39,0.00,,,0.00,WeatherDisplay:10.36,2013-03-20 03:55:00,
2013-03-19 23:00:00,34.5,12.6,30.14,NE,46,0.0,0.0,40,0.00,,,0.00,WeatherDisplay:10.36,2013-03-20 04:00:00,
2013-03-19 23:01:00,34.5,12.6,30.14,NE,47,0.0,0.0,40,0.00,,,0.00,WeatherDisplay:10.36,2013-03-20 04:01:00,
2013-03-19 23:02:00,34.5,12.6,30.14,NE,47,0.0,0.0,40,0.00,,,0.00,WeatherDisplay:10.36,2013-03-20 04:02:00,
2013-03-19 23:04:00,34.5,12.6,30.14,ENE,64,5.8,5.8,40,0.00,,,0.00,WeatherDisplay:10.36,2013-03-20 04:04:00,
2013-03-19 23:09:00,34.3,12.5,30.14,West,266,3.5,3.5,40,0.00,,,0.00,WeatherDisplay:10.36,2013-03-20 04:09:00,
2013-03-19 23:14:00,34.3,12.5,30.14,ENE,72,4.6,4.6,40,0.00,,,0.00,WeatherDisplay:10.36,2013-03-20 04:14:00,
2013-03-19 23:19:00,34.3,12.5,30.14,West,266,4.9,4.9,40,0.00,,,0.00,WeatherDisplay:10.36,2013-03-20 04:19:00,
2013-03-19 23:24:00,34.3,13.0,30.14,East,94,4.9,4.9,41,0.00,,,0.00,WeatherDisplay:10.36,2013-03-20 04:24:00,
2013-03-19 23:29:00,34.3,13.0,30.14,NE,56,5.8,5.8,41,0.00,,,0.00,WeatherDisplay:10.36,2013-03-20 04:29:00,
2013-03-19 23:34:00,34.3,13.0,30.14,West,265,5.4,5.4,41,0.00,,,0.00,WeatherDisplay:10.36,2013-03-20 04:34:00,
2013-03-19 23:39:00,34.3,13.0,30.14,ESE,106,5.8,5.8,41,0.00,,,0.00,WeatherDisplay:10.36,2013-03-20 04:39:00,
2013-03-19 23:44:00,34.3,13.0,30.14,East,96,4.6,4.6,41,0.00,,,0.00,WeatherDisplay:10.36,2013-03-20 04:44:00,
2013-03-19 23:49:00,34.3,13.0,30.14,NE,47,5.8,5.8,41,0.00,,,0.00,WeatherDisplay:10.36,2013-03-20 04:49:00,
2013-03-19 23:54:00,34.3,13.0,30.14,NE,49,7.4,7.4,41,0.00,,,0.00,WeatherDisplay:10.36,2013-03-20 04:54:00,
2013-03-19 23:59:00,34.3,13.0,30.14,NE,47,5.8,5.8,41,0.00,,,0.00,WeatherDisplay:10.36,2013-03-20 04:59:00,